[[{"header":{"parameterUnit":"m.s-1","parameterCategory":1,"la1":30.2991,"la2":30.254,"lo1":-89.0895,"lo2":-89.0444,"dy":0.0017,"dx":0.0017,"nx":28,"ny":28,"refTime":"2024-05-19T03:00:00:Z","depth":0,"parameterNumber":2,"parameterNumberName":"U-component_of_WINDS"},"data":[0,0,0,0,0,0,0,0,0,0,0,0,0,0,0,0,0,0,0,0,0,0,0,0,0,0,0,0,0,0,0,0,0,0,0,0,0,0,0,0,0,0,0,0,0,0,0,0,0,0,0,0,0,0,0,0,0,0,-2.2194,-2.2193,0,-2.2132,-2.2131,-2.2131,-2.2082,-2.2082,-2.2081,-2.2081,-2.2016,-2.2014,-2.2013,0,0,0,0,0,0,0,0,0,0,0,0,0,-2.2269,-2.2268,-2.2194,-2.2193,-2.2192,-2.2132,-2.2131,-2.2131,-2.2082,-2.2082,-2.2081,-2.2081,-2.2016,-2.2015,-2.2013,0,0,0,0,0,0,0,0,0,0,0,0,0,-2.2225,-2.2268,-2.2194,-2.2161,-2.2158,-2.2132,-2.2131,-2.213,-2.2083,-2.2082,-2.2081,-2.2081,-2.2017,-2.2015,-2.2013,-2.2015,0,0,-2.2007,-2.2006,0,0,0,0,0,0,0,0,-2.2228,-2.2222,-2.2167,-2.2163,-2.2159,-2.2114,-2.2134,-2.2091,-2.2083,-2.2111,-2.2081,-2.208,-2.2049,-2.2044,-2.2034,-2.2011,-2.2009,-2.2007,-2.2005,-2.2005,-2.2004,0,0,0,0,0,0,0,-2.2231,-2.2225,-2.2169,-2.2166,-2.2161,-2.2149,-2.2142,-2.2126,-2.2084,-2.2108,-2.2105,-2.2098,-2.2047,-2.2036,-2.2032,-2.2008,-2.2007,-2.2005,-2.2004,-2.2003,-2.1985,-2.1986,0,0,0,0,0,0,-2.2239,-2.2227,-2.2171,-2.2167,-2.2192,-2.2149,-2.2141,-2.2129,-2.2085,-2.2077,-2.2099,-2.2096,-2.204,-2.2035,-2.203,-2.203,-2.2005,-2.2003,-2.2002,-2.1985,-2.1985,-2.1986,0,0,0,0,0,0,-2.2241,-2.2234,-2.2174,-2.2197,-2.2188,-2.2148,-2.2136,-2.2129,-2.2118,-2.2077,-2.207,-2.2096,-2.2039,-2.2032,-2.2019,-2.2027,-2.2002,-2.2,-2.1984,-2.1985,-2.1986,-2.2029,0,0,0,0,0,0,-2.2243,-2.2235,-2.2236,-2.2197,-2.2187,-2.2164,-2.2136,-2.2128,-2.2115,-2.2111,-2.2072,-2.2065,-2.2038,-2.2022,-2.2017,-2.2023,-2.1998,-2.1983,-2.1984,-2.1985,-2.2027,-2.2031,-2.2035,0,0,0,0,0,-2.2246,-2.2249,-2.2236,-2.2229,-2.2186,-2.2165,-2.2159,-2.2128,-2.2116,-2.2116,-2.209,-2.2066,-2.2027,-2.2021,-2.2015,-2.2021,-2.1982,-2.1984,-2.1985,-2.2025,-2.2031,-2.2035,0,0,0,0,0,0,-2.2288,-2.2244,-2.2228,-2.2219,-2.2196,-2.2157,-2.2155,-2.2135,-2.2115,-2.2112,-2.2074,-2.2066,-2.2057,-2.2037,-2.2032,-2.2021,-2.2002,-2.2002,-2.2034,-2.2039,-2.2043,-2.2047,-2.1997,0,0,0,0,0,-2.2297,-2.2284,-2.2245,-2.2241,-2.2231,-2.2196,-2.2185,-2.2164,-2.2138,-2.2128,-2.2101,-2.2077,-2.2059,-2.2048,-2.203,-2.2024,-2.2016,-2.2026,-2.203,-2.2034,-2.2034,-2.2031,-2.2035,-2.1991,-2.1991,-2.1991,0,0,-2.2314,-2.2288,-2.2281,-2.2249,-2.2229,-2.2216,-2.2187,-2.2175,-2.2165,-2.2126,-2.2112,-2.2092,-2.2062,-2.2054,-2.2048,-2.2037,-2.2045,-2.2036,-2.2039,-2.2037,-2.2033,-2.2037,-2.2041,-2.1993,-2.1992,-2.1992,0,0,-2.2338,-2.2317,-2.2312,-2.2293,-2.2264,-2.2241,-2.224,-2.2204,-2.2189,-2.2175,-2.2146,-2.2134,-2.2104,-2.2085,-2.2071,-2.2091,-2.2069,-2.2086,-2.2109,-2.2106,-2.2109,-2.2112,-2.212,-2.2123,-2.2087,-2.2087,-2.2087,0,-2.2362,-2.2342,-2.2311,-2.2301,-2.2288,-2.2254,-2.2248,-2.2231,-2.2197,-2.2189,-2.2178,-2.2141,-2.2118,-2.2105,-2.2111,-2.2101,-2.2098,-2.209,-2.2112,-2.2114,-2.2116,-2.2123,-2.2126,-2.209,-2.2089,-2.2089,-2.2089,0,-2.2374,-2.2361,-2.236,-2.2329,-2.2316,-2.2308,-2.2276,-2.2267,-2.2248,-2.2226,-2.2213,-2.2186,-2.2162,-2.2157,-2.2137,-2.2142,-2.2136,-2.2119,-2.2098,-2.2123,-2.2129,-2.2131,-2.2093,-2.2092,-2.2091,-2.2091,0,0,-2.242,-2.2375,-2.2375,-2.2362,-2.2328,-2.2317,-2.2308,-2.2286,-2.2279,-2.2257,-2.2249,-2.2226,-2.2211,-2.2195,-2.2173,-2.2171,-2.219,-2.2154,-2.2153,-2.2162,-2.2194,-2.2206,-2.221,-2.2176,-2.2176,-2.2177,-2.2196,0,-2.2439,-2.2421,-2.2395,-2.2386,-2.2374,-2.2343,-2.2336,-2.2314,-2.2295,-2.2282,-2.226,-2.2244,-2.2225,-2.2216,-2.2212,-2.2188,-2.2196,-2.2187,-2.2167,-2.2167,-2.2175,-2.2212,-2.2225,-2.2245,-2.2198,-2.2198,-2.2199,0,-2.2457,-2.2439,-2.243,-2.2399,-2.2393,-2.2386,-2.2365,-2.2353,-2.2329,-2.2315,-2.2299,-2.2276,-2.2266,-2.2248,-2.2234,-2.2228,-2.2219,-2.2207,-2.2207,-2.2203,-2.2183,-2.2209,-2.225,-2.2253,-2.2202,-2.2201,-2.2201,0,-2.2492,-2.2465,-2.2456,-2.2446,-2.241,-2.2406,-2.2391,-2.2366,-2.2355,-2.2337,-2.2329,-2.2309,-2.2298,-2.2283,-2.2256,-2.2246,-2.2245,-2.2225,-2.2232,-2.2233,-2.2232,-2.2232,-2.2272,-2.2228,-2.2228,-2.2228,-2.2228,0,-2.2515,-2.251,-2.2472,-2.2466,-2.2461,-2.2431,-2.2426,-2.2408,-2.2387,-2.2377,-2.235,-2.2341,-2.2306,-2.2294,-2.2272,-2.2264,-2.2259,-2.2247,-2.2242,-2.2249,-2.2251,-2.2242,-2.2239,-2.2228,-2.2228,-2.2228,-2.2228,0,-2.2551,-2.2526,-2.2514,-2.2482,-2.2474,-2.2471,-2.2444,-2.2437,-2.2418,-2.2406,-2.2402,-2.237,-2.2354,-2.2326,-2.2302,-2.2288,-2.2284,-2.2274,-2.2292,-2.2288,-2.2297,-2.2297,-2.2332,-2.2335,-2.229,-2.2291,-2.2291,0,-2.2567,-2.2563,-2.2531,-2.2524,-2.251,-2.2498,-2.2487,-2.2458,-2.2448,-2.2422,-2.2419,-2.2402,-2.2386,-2.2363,-2.2337,-2.2319,-2.2309,-2.2322,-2.2306,-2.2314,-2.2308,-2.2309,-2.2308,-2.2326,-2.2326,-2.2327,-2.2327,0,-2.2597,-2.2586,-2.2571,-2.2554,-2.2542,-2.2526,-2.2509,-2.2504,-2.2472,-2.2462,-2.2446,-2.2435,-2.2412,-2.2395,-2.2374,-2.2358,-2.2337,-2.2333,-2.2334,-2.2341,-2.2351,-2.2346,-2.2301,-2.2332,-2.2331,-2.2331,-2.2331,-2.2331,-2.2624,-2.2619,-2.2597,-2.2583,-2.2567,-2.2553,-2.2546,-2.2526,-2.2513,-2.2492,-2.2476,-2.2462,-2.244,-2.241,-2.2395,-2.2384,-2.2374,-2.2375,-2.2375,-2.2376,-2.2379,-2.2355,-2.238,-2.238,-2.238,-2.238,-2.238,0,-2.2652,-2.2637,-2.2625,-2.2602,-2.2592,-2.2575,-2.2556,-2.2548,-2.2536,-2.2518,-2.2504,-2.2487,-2.2471,-2.2446,-2.2428,-2.2424,-2.2414,-2.242,-2.242,-2.2417,-2.2389,-2.239,-2.2429,-2.2429,-2.2429,-2.2429,-2.2429,-2.2429,-2.2666,-2.2658,-2.2644,-2.2629,-2.2613,-2.26,-2.2591,-2.2577,-2.2563,-2.2545,-2.2533,-2.2517,-2.2496,-2.2477,-2.2462,-2.2455,-2.245,-2.2459,-2.2449,-2.2423,-2.2418,-2.2414,-2.2415,-2.2458,-2.2458,-2.2477,-2.2477,-2.2477]},{"header":{"parameterUnit":"m.s-1","parameterCategory":1,"la1":30.2991,"la2":30.254,"lo1":-89.0895,"lo2":-89.0444,"dy":0.0017,"dx":0.0017,"nx":28,"ny":28,"refTime":"2024-05-19T03:00:00:Z","depth":0,"parameterNumber":3,"parameterNumberName":"V-component_of_WINDS"},"data":[0,0,0,0,0,0,0,0,0,0,0,0,0,0,0,0,0,0,0,0,0,0,0,0,0,0,0,0,0,0,0,0,0,0,0,0,0,0,0,0,0,0,0,0,0,0,0,0,0,0,0,0,0,0,0,0,0,0,0.6857,0.6857,0,0.6839,0.6839,0.6839,0.6855,0.6856,0.6856,0.6857,0.6836,0.6835,0.6834,0,0,0,0,0,0,0,0,0,0,0,0,0,0.6903,0.6903,0.6857,0.6857,0.6856,0.6839,0.6839,0.6839,0.6855,0.6856,0.6857,0.6857,0.6836,0.6835,0.6833,0,0,0,0,0,0,0,0,0,0,0,0,0,0.6884,0.6902,0.6857,0.6863,0.6863,0.6839,0.6839,0.6839,0.6855,0.6856,0.6857,0.6858,0.6837,0.6835,0.6833,0.6802,0,0,0.6828,0.6827,0,0,0,0,0,0,0,0,0.6885,0.6882,0.6862,0.6862,0.6863,0.6851,0.6848,0.6826,0.6855,0.6858,0.6857,0.6858,0.684,0.6838,0.6832,0.6801,0.68,0.6828,0.6827,0.6826,0.6825,0,0,0,0,0,0,0,0.6887,0.6883,0.685,0.6862,0.6862,0.6866,0.6864,0.6844,0.6843,0.6858,0.6859,0.6857,0.684,0.6834,0.6832,0.68,0.6828,0.6826,0.6825,0.6824,0.6744,0.6743,0,0,0,0,0,0,0.6888,0.6884,0.685,0.6849,0.6877,0.6864,0.6862,0.6853,0.6844,0.6843,0.6856,0.6857,0.6836,0.6834,0.6831,0.6795,0.6826,0.6824,0.6823,0.6745,0.6744,0.6743,0,0,0,0,0,0,0.6889,0.6884,0.6851,0.6867,0.6863,0.6862,0.6852,0.6852,0.6846,0.6842,0.6842,0.685,0.6837,0.6834,0.681,0.6794,0.6823,0.6822,0.6746,0.6745,0.6743,0.6721,0,0,0,0,0,0,0.689,0.6885,0.6873,0.6867,0.6862,0.683,0.6851,0.6851,0.6843,0.6845,0.6836,0.6836,0.6838,0.6812,0.6808,0.6792,0.682,0.6748,0.6746,0.6744,0.6723,0.6719,0.6715,0,0,0,0,0,0.6891,0.6866,0.6872,0.6868,0.6848,0.6829,0.6827,0.683,0.6842,0.683,0.6828,0.6836,0.6797,0.681,0.6805,0.6788,0.6749,0.6746,0.6744,0.6725,0.672,0.6715,0,0,0,0,0,0,0.6869,0.6865,0.6872,0.6844,0.6837,0.6832,0.6817,0.6824,0.6813,0.6815,0.6819,0.6817,0.6792,0.6788,0.6802,0.6759,0.6775,0.6771,0.6762,0.6757,0.6753,0.6754,0.6819,0,0,0,0,0,0.6861,0.6847,0.6845,0.682,0.6817,0.6818,0.681,0.6814,0.6806,0.6802,0.6798,0.679,0.6776,0.6766,0.6753,0.6723,0.6722,0.671,0.6706,0.6703,0.6699,0.6684,0.6679,0.6735,0.6735,0.6735,0,0,0.6844,0.684,0.6831,0.6816,0.6811,0.6796,0.6815,0.6798,0.6787,0.6799,0.6777,0.6774,0.6765,0.6739,0.6726,0.6734,0.6684,0.67,0.6697,0.6695,0.6681,0.6675,0.6671,0.6733,0.6734,0.6734,0,0,0.6805,0.6801,0.6781,0.6776,0.6769,0.677,0.6765,0.676,0.6759,0.6737,0.6747,0.6734,0.6709,0.6703,0.6696,0.6658,0.6665,0.6653,0.6632,0.6617,0.6613,0.6609,0.6595,0.659,0.665,0.665,0.665,0,0.6784,0.6762,0.6769,0.6752,0.6745,0.6759,0.6738,0.6733,0.6721,0.6716,0.6726,0.6697,0.6692,0.6664,0.6655,0.6649,0.6644,0.6653,0.6613,0.6609,0.6606,0.6592,0.6587,0.6649,0.6649,0.6649,0.6649,0,0.6737,0.6722,0.6707,0.6697,0.6689,0.667,0.6674,0.6665,0.667,0.6671,0.6649,0.6644,0.663,0.6624,0.6628,0.6597,0.6603,0.6613,0.6629,0.6599,0.6586,0.6581,0.6647,0.6647,0.6648,0.6648,0,0,0.668,0.6677,0.6671,0.6668,0.6662,0.665,0.6633,0.6621,0.6614,0.6606,0.6591,0.6572,0.6582,0.6574,0.6578,0.6565,0.6536,0.6577,0.6577,0.6569,0.6502,0.6494,0.6488,0.6541,0.654,0.654,0.6502,0,0.6641,0.6612,0.6618,0.6589,0.6576,0.659,0.6574,0.6569,0.657,0.6558,0.6559,0.6545,0.6559,0.6555,0.6543,0.6542,0.6522,0.6545,0.6527,0.6526,0.6527,0.6481,0.6472,0.6437,0.6498,0.6497,0.6496,0,0.659,0.6583,0.6553,0.6551,0.6546,0.6532,0.6523,0.6512,0.6507,0.6508,0.6501,0.6509,0.6491,0.6509,0.6485,0.6501,0.6494,0.6493,0.6492,0.6489,0.6508,0.6477,0.6426,0.6421,0.6489,0.6489,0.649,0,0.6552,0.6534,0.6514,0.6511,0.6508,0.6498,0.6497,0.6493,0.6486,0.6478,0.6474,0.6463,0.6457,0.6449,0.6453,0.6466,0.6429,0.6447,0.6429,0.6429,0.6419,0.6419,0.6366,0.6416,0.6417,0.6417,0.6417,0,0.6506,0.6487,0.6497,0.6484,0.6464,0.6472,0.6451,0.6451,0.6448,0.6436,0.6447,0.6435,0.6442,0.6431,0.6434,0.6414,0.6411,0.6411,0.6412,0.641,0.641,0.6404,0.6407,0.6415,0.6416,0.6416,0.6416,0,0.6459,0.6465,0.6444,0.6444,0.6444,0.6429,0.6429,0.6417,0.642,0.6404,0.6401,0.6405,0.6392,0.6396,0.6382,0.6384,0.6359,0.6363,0.6361,0.6361,0.6343,0.6345,0.6284,0.6276,0.6332,0.6332,0.6331,0,0.6429,0.6415,0.6415,0.6408,0.6406,0.6395,0.6389,0.6397,0.639,0.6385,0.6374,0.6363,0.6354,0.6333,0.6334,0.6324,0.6328,0.6307,0.6326,0.6324,0.6327,0.6327,0.6326,0.6303,0.6302,0.6301,0.6301,0,0.6375,0.6379,0.637,0.6363,0.6356,0.635,0.6345,0.6339,0.6348,0.6339,0.6327,0.6321,0.6308,0.6296,0.6288,0.6286,0.6294,0.6296,0.6291,0.6287,0.6286,0.6286,0.635,0.6296,0.6297,0.6297,0.6297,0.6298,0.6335,0.6323,0.6322,0.6312,0.631,0.6306,0.6296,0.6298,0.6289,0.628,0.6286,0.6272,0.6269,0.6258,0.6255,0.6244,0.6252,0.6245,0.6243,0.6241,0.6239,0.629,0.6243,0.6243,0.6243,0.6243,0.6243,0,0.6281,0.6282,0.6273,0.6267,0.6259,0.6271,0.6267,0.6259,0.6248,0.6245,0.6237,0.6224,0.6214,0.6215,0.6205,0.6197,0.6201,0.6194,0.6194,0.6193,0.6232,0.6237,0.6191,0.6191,0.6191,0.6191,0.6191,0.6191,0.6252,0.6234,0.6238,0.6219,0.622,0.6208,0.6205,0.6201,0.6199,0.6184,0.6176,0.6178,0.6177,0.6168,0.6159,0.616,0.6156,0.6147,0.6149,0.6185,0.619,0.6195,0.62,0.6146,0.6146,0.6111,0.6111,0.611]}]]